Weather History for Maxwell AFB, AL

Change the Weather History Date:

Friday, May 24, 2013

  Actual Average Record
Temperature  
Mean Temperature 74 °F -  
Max Temperature 84 °F 84 °F 95 °F (2000)
Min Temperature 63 °F 64 °F 53 °F (2002)
Cooling Degree Days 10    
Growing Degree Days 24 (Base 50)    
Moisture  
Dew Point 54 °F    
Average Humidity 53    
Maximum Humidity 88    
Minimum Humidity 28    
Precipitation  
Precipitation 0.00 in - - ()
Sea Level Pressure  
Sea Level Pressure 30.14 in    
Wind  
Wind Speed 7 mph (North)    
Max Wind Speed 16 mph    
Max Gust Speed 24 mph    
Visibility 10 miles    
Events      
Averages and records for this station are not official NWS values.
T = Trace of Precipitation, MM = Missing Value Source: NWS Daily Summary

Daily Weather History Graph

Daily Weather History Graph

Search for Another Location

Airport:

Trip Planner

Search our weather history database for the weather conditions in past years. The results will help you decide how hot, cold, wet, or windy it might be!

Date:

Astronomy

May. 24, 2013 Rise Set
Actual Time 5:42 AM CDT 7:42 PM CDT
Civil Twilight 5:14 AM CDT 8:10 PM CDT
Nautical Twilight 4:41 AM CDT 8:44 PM CDT
Astronomical Twilight 4:05 AM CDT 9:19 PM CDT
Moon 7:25 PM CDT (5/24) 5:10 AM CDT (5/24)
Length of Visible Light 14h 56m
Length of Day
14h 00m
Full, 100% of the Moon is Illuminated
May 24
Full
May 24
Full
May 31
Last Quarter
Jun 8
New
Jun 16
First Quarter

Hourly Weather History & Observations

Time (CDT) Temp. Dew Point Humidity Pressure Visibility Wind Dir Wind Speed Gust Speed Precip Events Conditions
12:58 AM 68.0 °F 63.1 °F 84% 30.03 in 10.0 mi West 3.5 mph - N/A   Clear
1:58 AM 66.6 °F 62.6 °F 87% 30.04 in 10.0 mi West 3.5 mph - N/A   Clear
2:58 AM 65.3 °F 61.7 °F 88% 30.05 in 10.0 mi NW 3.5 mph - N/A   Clear
3:58 AM 67.6 °F 59.9 °F 76% 30.05 in 10.0 mi North 5.8 mph - N/A   Clear
4:58 AM 67.3 °F 58.8 °F 74% 30.08 in 10.0 mi North 5.8 mph - N/A   Clear
5:58 AM 66.4 °F 58.5 °F 76% 30.10 in 10.0 mi North 3.5 mph - N/A   Partly Cloudy
6:58 AM 68.2 °F 59.2 °F 73% 30.12 in 10.0 mi NNE 6.9 mph - N/A   Clear
7:58 AM 70.9 °F 57.7 °F 63% 30.14 in 10.0 mi North 10.4 mph - N/A   Clear
8:58 AM 73.8 °F 56.7 °F 55% 30.17 in 10.0 mi North 9.2 mph - N/A   Clear
9:58 AM 76.6 °F 56.8 °F 50% 30.17 in 10.0 mi NNW 11.5 mph - N/A   Clear
10:58 AM 79.7 °F 56.5 °F 45% 30.17 in 10.0 mi North 11.5 mph - N/A   Clear
11:58 AM 82.4 °F 52.5 °F 35% 30.16 in 10.0 mi NNW 11.5 mph - N/A   Clear
12:40 PM 84.2 °F 51.8 °F 33% 30.15 in 10.0 mi North 15.0 mph 21.9 mph N/A   Clear
12:58 PM 83.3 °F 51.4 °F 33% 30.16 in 10.0 mi North 16.1 mph 24.2 mph N/A   Clear
1:53 PM 84.2 °F 51.8 °F 33% 30.15 in 10.0 mi NNE 13.8 mph - N/A   Clear
1:58 PM 83.7 °F 52.3 °F 34% 30.16 in 10.0 mi North 10.4 mph - N/A   Clear
2:58 PM 84.4 °F 52.0 °F 33% 30.16 in 10.0 mi North 11.5 mph - N/A   Clear
3:58 PM 84.2 °F 50.4 °F 31% 30.15 in 10.0 mi NNW 13.8 mph - N/A   Clear
4:58 PM 82.9 °F 46.4 °F 28% 30.16 in 10.0 mi NNE 12.7 mph 20.7 mph N/A   Clear
5:58 PM 81.3 °F 48.6 °F 32% 30.16 in 10.0 mi North 12.7 mph - N/A   Clear
6:58 PM 78.1 °F 48.0 °F 35% 30.16 in 10.0 mi North 8.1 mph - N/A   Clear
7:58 PM 72.5 °F 49.3 °F 44% 30.17 in 10.0 mi North 6.9 mph - N/A   Clear
8:58 PM 68.9 °F 50.9 °F 53% 30.18 in 10.0 mi North 6.9 mph - N/A   Clear
9:58 PM 66.6 °F 50.5 °F 56% 30.21 in 10.0 mi North 4.6 mph - N/A   Clear
10:58 PM 65.5 °F 51.6 °F 61% 30.22 in 10.0 mi NNE 3.5 mph - N/A   Clear
11:58 PM 63.5 °F 51.4 °F 65% 30.21 in 10.0 mi NE 3.5 mph - N/A   Clear